[[{"header":{"parameterUnit":"m.s-1","parameterCategory":1,"la1":30.2991,"la2":30.254,"lo1":-89.0895,"lo2":-89.0444,"dy":0.0017,"dx":0.0017,"nx":28,"ny":28,"refTime":"2024-07-09T21:00:00:Z","depth":0,"parameterNumber":2,"parameterNumberName":"U-component_of_WINDS"},"data":[0,0,0,0,0,0,0,0,0,0,0,0,0,0,0,0,0,0,0,0,0,0,0,0,0,0,0,0,0,0,0,0,0,0,0,0,0,0,0,0,0,0,0,0,0,0,0,0,0,0,0,0,0,0,0,0,0,0,1.9754,1.9755,0,1.9822,1.9823,1.9823,1.9805,1.9803,1.9802,1.9801,1.9871,1.9874,1.9877,0,0,0,0,0,0,0,0,0,0,0,0,0,1.9609,1.9611,1.9754,1.9755,1.9756,1.9822,1.9823,1.9823,1.9805,1.9803,1.9802,1.98,1.987,1.9874,1.9877,0,0,0,0,0,0,0,0,0,0,0,0,0,1.9674,1.9612,1.9754,1.9754,1.9755,1.9821,1.9823,1.9824,1.9805,1.9803,1.9801,1.9799,1.9869,1.9873,1.9878,1.9948,0,0,1.9892,1.9894,0,0,0,0,0,0,0,0,1.967,1.9679,1.9753,1.9754,1.9755,1.9803,1.9797,1.9866,1.9806,1.9786,1.9801,1.9798,1.985,1.9856,1.9873,1.9952,1.9955,1.9893,1.9896,1.9898,1.9899,0,0,0,0,0,0,0,1.9666,1.9676,1.9781,1.9755,1.9756,1.9751,1.9758,1.981,1.9829,1.9788,1.9787,1.9795,1.985,1.9869,1.9875,1.9956,1.9893,1.9897,1.99,1.9902,2.0094,2.0096,0,0,0,0,0,0,1.966,1.9672,1.9779,1.9783,1.9707,1.9756,1.9763,1.979,1.9828,1.9832,1.9797,1.9794,1.9862,1.9869,1.9877,1.9961,1.9898,1.9902,1.9905,2.0091,2.0094,2.0097,0,0,0,0,0,0,1.9657,1.967,1.9776,1.9727,1.974,1.976,1.979,1.9792,1.9811,1.9835,1.9838,1.9812,1.986,1.9871,1.993,1.9963,1.9904,1.9909,2.0089,2.0092,2.0095,2.013,0,0,0,0,0,0,1.9653,1.9669,1.9696,1.9728,1.9743,1.9828,1.9792,1.9795,1.9819,1.9816,1.985,1.9854,1.986,1.9923,1.9935,1.9969,1.9912,2.0086,2.009,2.0094,2.0126,2.0134,2.0141,0,0,0,0,0,1.9648,1.9703,1.9697,1.971,1.9777,1.983,1.9838,1.9843,1.9822,1.9849,1.9864,1.9853,1.9958,1.993,1.9943,1.9978,2.0084,2.0089,2.0094,2.0123,2.0133,2.0141,0,0,0,0,0,0,1.9675,1.9708,1.9701,1.9769,1.9797,1.9827,1.9861,1.9854,1.9889,1.9885,1.989,1.9898,1.9959,1.9975,1.9942,2.0048,2.0018,2.0026,2.0035,2.0045,2.0052,2.0047,1.9916,0,0,0,0,0,1.9688,1.9728,1.9755,1.9812,1.9826,1.9841,1.9864,1.9866,1.9895,1.9907,1.9927,1.9956,1.9995,2.0021,2.0059,2.0128,2.0135,2.0159,2.0167,2.0173,2.0179,2.0217,2.0227,2.0113,2.0113,2.0113,0,0,1.9717,1.974,1.9765,1.9818,1.984,1.9881,1.9851,1.9896,1.9927,1.9914,1.9971,1.9987,2.0019,2.0084,2.0114,2.0099,2.0212,2.0179,2.0184,2.0187,2.0223,2.0234,2.0243,2.0117,2.0116,2.0116,0,0,1.979,1.9812,1.9861,1.9884,1.9917,1.9926,1.9938,1.9969,1.9979,2.0037,2.0027,2.0064,2.0132,2.0155,2.0176,2.0257,2.0248,2.027,2.0309,2.0345,2.0354,2.0362,2.039,2.04,2.0276,2.0276,2.0276,0,1.9822,1.9883,1.9888,1.9933,1.9956,1.9946,1.9996,2.0017,2.0061,2.0077,2.0061,2.0145,2.0166,2.0236,2.0256,2.0273,2.0286,2.0265,2.0352,2.036,2.0368,2.0395,2.0405,2.0279,2.0278,2.0278,2.0278,0,1.992,1.9963,1.9999,2.0041,2.0068,2.0116,2.0127,2.0154,2.0153,2.0164,2.0222,2.0248,2.029,2.0306,2.0306,2.0376,2.0366,2.0351,2.032,2.0381,2.0406,2.0416,2.0282,2.0281,2.028,2.028,0,0,2.0012,2.0055,2.0068,2.0087,2.0122,2.0156,2.0202,2.0243,2.0266,2.0297,2.0336,2.0393,2.0379,2.0403,2.0405,2.0437,2.0498,2.0418,2.0418,2.0431,2.0576,2.0586,2.0598,2.0493,2.0495,2.0496,2.0573,0,2.0087,2.0169,2.0174,2.0248,2.0287,2.0278,2.0319,2.0345,2.0357,2.0392,2.0405,2.0445,2.0424,2.0438,2.0469,2.0484,2.0527,2.0479,2.0529,2.053,2.052,2.0611,2.0623,2.0693,2.0583,2.0584,2.0586,0,2.0186,2.0219,2.0297,2.0326,2.0343,2.038,2.0417,2.0451,2.048,2.0486,2.0512,2.051,2.0558,2.0526,2.0592,2.0559,2.0579,2.059,2.0593,2.0597,2.0561,2.0617,2.0716,2.0726,2.0601,2.06,2.0599,0,2.0244,2.0308,2.0363,2.0379,2.0415,2.0441,2.0457,2.0484,2.0508,2.0541,2.0556,2.0595,2.0615,2.0645,2.0653,2.0629,2.0718,2.0687,2.0724,2.0724,2.0742,2.0741,2.0845,2.0757,2.0757,2.0757,2.0757,0,2.0327,2.0375,2.0389,2.0422,2.0476,2.0481,2.0533,2.0548,2.0572,2.0608,2.0603,2.0637,2.0646,2.0681,2.0688,2.0741,2.075,2.0756,2.0757,2.0756,2.0755,2.0769,2.0764,2.076,2.0759,2.0758,2.0758,0,2.04,2.0411,2.047,2.0499,2.0508,2.0546,2.057,2.0603,2.0613,2.0659,2.067,2.0687,2.0729,2.074,2.079,2.0794,2.0856,2.0853,2.0846,2.0845,2.0881,2.0877,2.0997,2.1013,2.0916,2.0917,2.0917,0,2.0452,2.0488,2.0521,2.0545,2.0562,2.06,2.0624,2.0631,2.0656,2.0692,2.072,2.0761,2.0794,2.086,2.0877,2.0915,2.0912,2.0952,2.0918,2.0916,2.0912,2.0909,2.0912,2.0958,2.0959,2.096,2.0961,0,2.0542,2.0546,2.0581,2.0618,2.0647,2.0676,2.0705,2.0724,2.0735,2.0764,2.0806,2.0831,2.0882,2.0922,2.096,2.0977,2.097,2.0971,2.0981,2.098,2.0974,2.0977,2.0862,2.0968,2.0967,2.0967,2.0966,2.0966,2.0605,2.0637,2.0665,2.0704,2.0726,2.0752,2.0783,2.0798,2.0833,2.0875,2.0877,2.0922,2.095,2.1001,2.1019,2.1055,2.1043,2.1058,2.1062,2.1065,2.1068,2.0969,2.1062,2.1062,2.1062,2.1062,2.1061,0,2.0694,2.0712,2.0748,2.0787,2.0818,2.0809,2.084,2.0866,2.0906,2.0932,2.0965,2.1013,2.1052,2.1072,2.111,2.1135,2.1133,2.1145,2.1143,2.1146,2.1077,2.1064,2.1146,2.1146,2.1146,2.1146,2.1146,2.1146,2.0744,2.0797,2.0804,2.0867,2.0884,2.0929,2.0947,2.0971,2.0992,2.1046,2.1078,2.1091,2.1115,2.1155,2.119,2.1195,2.1209,2.1222,2.1226,2.116,2.1151,2.1143,2.1131,2.1226,2.1226,2.1292,2.1292,2.1293]},{"header":{"parameterUnit":"m.s-1","parameterCategory":1,"la1":30.2991,"la2":30.254,"lo1":-89.0895,"lo2":-89.0444,"dy":0.0017,"dx":0.0017,"nx":28,"ny":28,"refTime":"2024-07-09T21:00:00:Z","depth":0,"parameterNumber":3,"parameterNumberName":"V-component_of_WINDS"},"data":[0,0,0,0,0,0,0,0,0,0,0,0,0,0,0,0,0,0,0,0,0,0,0,0,0,0,0,0,0,0,0,0,0,0,0,0,0,0,0,0,0,0,0,0,0,0,0,0,0,0,0,0,0,0,0,0,0,0,3.5628,3.5628,0,3.5651,3.5652,3.5652,3.5657,3.5657,3.5656,3.5656,3.5677,3.5678,3.5679,0,0,0,0,0,0,0,0,0,0,0,0,0,3.5587,3.5587,3.5628,3.5629,3.5629,3.5651,3.5652,3.5652,3.5657,3.5657,3.5656,3.5656,3.5677,3.5678,3.5679,0,0,0,0,0,0,0,0,0,0,0,0,0,3.5607,3.5588,3.5628,3.5634,3.5635,3.5651,3.5652,3.5652,3.5657,3.5657,3.5656,3.5656,3.5677,3.5678,3.5679,3.569,0,0,3.5682,3.5683,0,0,0,0,0,0,0,0,3.5605,3.5608,3.5633,3.5634,3.5635,3.5651,3.5645,3.5665,3.5657,3.5648,3.5656,3.5656,3.5669,3.567,3.5675,3.5691,3.5692,3.5682,3.5683,3.5684,3.5684,0,0,0,0,0,0,0,3.5604,3.5607,3.5637,3.5633,3.5634,3.5635,3.5637,3.5648,3.5659,3.5649,3.565,3.5652,3.5669,3.5674,3.5676,3.5693,3.5682,3.5683,3.5684,3.5684,3.572,3.572,0,0,0,0,0,0,3.5602,3.5606,3.5637,3.5638,3.5619,3.5636,3.5639,3.5646,3.5659,3.5661,3.5653,3.5652,3.5672,3.5674,3.5676,3.5691,3.5684,3.5685,3.5685,3.5719,3.572,3.572,0,0,0,0,0,0,3.5601,3.5605,3.5636,3.5622,3.5626,3.5637,3.5645,3.5646,3.5652,3.5662,3.5664,3.5656,3.5672,3.5675,3.5687,3.5692,3.5685,3.5686,3.5719,3.5719,3.572,3.5719,0,0,0,0,0,0,3.56,3.5604,3.5609,3.5622,3.5627,3.5646,3.5645,3.5647,3.5654,3.5654,3.5666,3.5667,3.5672,3.5686,3.5688,3.5693,3.5687,3.5719,3.5719,3.572,3.5719,3.572,3.572,0,0,0,0,0,3.5598,3.5608,3.5609,3.5613,3.5633,3.5647,3.5649,3.5656,3.5654,3.5659,3.5665,3.5667,3.5691,3.5687,3.569,3.5695,3.5718,3.5719,3.572,3.5719,3.572,3.572,0,0,0,0,0,0,3.5594,3.5609,3.5611,3.5625,3.5635,3.5648,3.5654,3.5656,3.5666,3.5665,3.5672,3.5675,3.5686,3.5692,3.5687,3.5707,3.5704,3.5706,3.5703,3.5704,3.5704,3.5702,3.5688,0,0,0,0,0,3.5594,3.5605,3.5618,3.5629,3.5633,3.5643,3.5649,3.5653,3.5663,3.5666,3.5674,3.5683,3.5692,3.5698,3.5708,3.572,3.5722,3.5725,3.5726,3.5726,3.5727,3.5734,3.5735,3.5722,3.5722,3.5722,0,0,3.5596,3.5606,3.5611,3.5628,3.5636,3.5646,3.5646,3.5656,3.5664,3.5668,3.568,3.5686,3.5696,3.5708,3.5714,3.5713,3.5731,3.5727,3.5727,3.5728,3.5735,3.5736,3.5737,3.5723,3.5722,3.5722,0,0,3.5603,3.5612,3.5622,3.563,3.5642,3.5649,3.5651,3.5664,3.5668,3.5681,3.5684,3.5692,3.5709,3.5716,3.5722,3.5733,3.5734,3.5735,3.5739,3.5745,3.5746,3.5747,3.5751,3.5752,3.5736,3.5736,3.5736,0,3.5603,3.5619,3.5627,3.5637,3.5644,3.565,3.566,3.5667,3.5681,3.5685,3.5684,3.5705,3.5712,3.5727,3.5729,3.5734,3.5737,3.5734,3.5746,3.5747,3.5748,3.5751,3.5753,3.5736,3.5736,3.5736,3.5736,0,3.5618,3.5629,3.5636,3.565,3.5658,3.5668,3.5677,3.5684,3.5688,3.5694,3.5706,3.5715,3.5727,3.5731,3.5734,3.5745,3.5744,3.5744,3.5742,3.5749,3.5752,3.5754,3.5736,3.5736,3.5736,3.5736,0,0,3.5622,3.5642,3.5644,3.5651,3.5665,3.5674,3.5684,3.5696,3.5702,3.5711,3.572,3.5734,3.5734,3.5741,3.5745,3.5751,3.5759,3.575,3.5751,3.5751,3.5772,3.5771,3.5773,3.576,3.5761,3.5761,3.5771,0,3.5631,3.5651,3.5659,3.5674,3.5684,3.569,3.5699,3.5708,3.5714,3.5723,3.573,3.574,3.574,3.5744,3.575,3.5757,3.5763,3.5756,3.5768,3.5768,3.5764,3.5775,3.5774,3.5783,3.5772,3.5772,3.5773,0,3.5644,3.5655,3.5672,3.5686,3.569,3.5698,3.571,3.5719,3.5729,3.5733,3.5741,3.5745,3.5756,3.5753,3.5767,3.5763,3.5768,3.5772,3.5772,3.5773,3.577,3.5775,3.5786,3.5787,3.5775,3.5775,3.5774,0,3.5646,3.5665,3.5677,3.5683,3.5699,3.5704,3.5711,3.5722,3.5728,3.5738,3.5743,3.5754,3.5759,3.5767,3.5774,3.5772,3.5788,3.5786,3.5791,3.5791,3.5793,3.5793,3.5805,3.5798,3.5798,3.5797,3.5797,0,3.5655,3.5665,3.5678,3.5686,3.5697,3.5706,3.5717,3.5724,3.5733,3.5742,3.5747,3.5755,3.5763,3.5772,3.5777,3.5788,3.5791,3.5794,3.5795,3.5793,3.5793,3.5796,3.5796,3.5798,3.5798,3.5798,3.5798,0,3.5658,3.5667,3.5681,3.5696,3.57,3.5707,3.5719,3.5727,3.5733,3.5744,3.5747,3.5758,3.5768,3.5776,3.579,3.5793,3.5805,3.5806,3.5802,3.5802,3.5807,3.5806,3.5821,3.5823,3.5814,3.5814,3.5814,0,3.5663,3.5671,3.5686,3.5693,3.57,3.5711,3.5718,3.5727,3.5734,3.5747,3.5753,3.5764,3.5773,3.579,3.5798,3.5809,3.581,3.5815,3.5812,3.581,3.581,3.5809,3.581,3.5815,3.5815,3.5815,3.5815,0,3.567,3.5675,3.5686,3.5698,3.5707,3.5717,3.5727,3.5732,3.5743,3.575,3.5762,3.5769,3.5784,3.5795,3.5806,3.5812,3.5815,3.5816,3.5818,3.5816,3.5813,3.5814,3.5802,3.5815,3.5815,3.5815,3.5815,3.5815,3.5675,3.5682,3.5694,3.5706,3.5715,3.5724,3.5732,3.574,3.5751,3.5763,3.5768,3.578,3.579,3.5806,3.5812,3.5821,3.5821,3.5823,3.5824,3.5824,3.5824,3.5812,3.5823,3.5823,3.5823,3.5823,3.5823,0,3.5682,3.5691,3.5702,3.5716,3.5725,3.5729,3.574,3.5747,3.5758,3.5768,3.5777,3.5791,3.5801,3.5811,3.5822,3.5827,3.5829,3.583,3.5829,3.5831,3.5824,3.5821,3.5828,3.5828,3.5828,3.5828,3.5828,3.5828,3.5687,3.57,3.5706,3.5724,3.5732,3.5744,3.575,3.5759,3.5767,3.5782,3.5791,3.5798,3.5807,3.5819,3.5829,3.5832,3.5835,3.5836,3.5839,3.5832,3.5831,3.5831,3.5828,3.5837,3.5837,3.5845,3.5845,3.5845]}]]